Time,TemperatureF,DewpointF,PressureIn,WindDirection,WindDirectionDegrees,WindSpeedMPH,WindSpeedGustMPH,Humidity,HourlyPrecipIn,Conditions,Clouds,dailyrainin,SoftwareType,DateUTC
2013-05-11 00:01:00,61.3,60.8,29.97,SSE,158,0.0,0.0,98,0.00,RA,,0.00,WeatherDisplay:10.37,2013-05-11 05:01:00,
2013-05-11 00:06:00,61.5,61.0,29.97,SSE,158,1.6,0.0,98,0.00,RA,,0.00,WeatherDisplay:10.37,2013-05-11 05:06:00,
2013-05-11 00:11:00,61.7,61.1,29.97,SSE,158,0.0,0.0,98,0.00,CLR,,0.00,WeatherDisplay:10.37,2013-05-11 05:11:00,
2013-05-11 00:16:00,61.5,61.0,29.97,North,0,2.3,2.3,98,0.00,CLR,,0.00,WeatherDisplay:10.37,2013-05-11 05:16:00,
2013-05-11 00:21:00,61.5,61.0,29.97,NNW,338,2.3,2.3,98,0.00,CLR,,0.00,WeatherDisplay:10.37,2013-05-11 05:21:00,
2013-05-11 00:26:00,61.5,61.0,29.97,North,0,2.3,2.3,98,0.00,CLR,,0.00,WeatherDisplay:10.37,2013-05-11 05:26:00,
2013-05-11 00:31:00,61.5,61.0,29.97,North,0,1.1,0.0,98,0.00,CLR,,0.00,WeatherDisplay:10.37,2013-05-11 05:31:00,
2013-05-11 00:36:00,61.5,61.0,29.97,North,0,0.0,0.0,98,0.00,CLR,,0.00,WeatherDisplay:10.37,2013-05-11 05:36:00,
2013-05-11 00:41:00,61.5,61.0,29.97,North,0,0.0,0.0,98,0.00,CLR,,0.00,WeatherDisplay:10.37,2013-05-11 05:41:00,
2013-05-11 00:46:00,61.3,60.8,29.94,ESE,112,1.1,0.0,98,0.00,CLR,,0.00,WeatherDisplay:10.37,2013-05-11 05:46:00,
2013-05-11 00:51:00,61.3,60.8,29.94,NNW,338,0.0,0.0,98,0.00,CLR,,0.00,WeatherDisplay:10.37,2013-05-11 05:51:00,
2013-05-11 00:56:00,61.2,60.6,29.94,NNW,338,1.6,1.6,98,0.00,CLR,,0.00,WeatherDisplay:10.37,2013-05-11 05:56:00,
2013-05-11 01:01:00,61.2,60.6,29.97,NNW,338,0.0,0.0,98,0.00,CLR,,0.00,WeatherDisplay:10.37,2013-05-11 06:01:00,
2013-05-11 01:06:00,61.2,60.6,29.97,NNW,338,0.0,0.0,98,0.00,CLR,,0.00,WeatherDisplay:10.37,2013-05-11 06:06:00,
2013-05-11 01:11:00,61.0,60.4,29.97,NNW,338,0.0,0.0,98,0.00,CLR,,0.00,WeatherDisplay:10.37,2013-05-11 06:11:00,
2013-05-11 01:16:00,61.0,60.4,29.97,NNW,338,0.0,0.0,98,0.00,CLR,,0.00,WeatherDisplay:10.37,2013-05-11 06:16:00,
2013-05-11 01:21:00,61.2,60.6,29.97,North,0,0.0,0.0,98,0.00,CLR,,0.00,WeatherDisplay:10.37,2013-05-11 06:21:00,
2013-05-11 01:26:00,61.0,60.4,29.97,North,0,1.4,1.4,98,0.00,CLR,,0.00,WeatherDisplay:10.37,2013-05-11 06:26:00,
2013-05-11 01:31:00,61.2,60.6,29.97,NNW,338,2.3,2.3,98,0.00,CLR,,0.00,WeatherDisplay:10.37,2013-05-11 06:31:00,
2013-05-11 01:36:00,61.3,60.8,29.97,North,0,2.4,2.4,98,0.00,CLR,,0.00,WeatherDisplay:10.37,2013-05-11 06:36:00,
2013-05-11 01:41:00,61.3,60.8,29.97,North,0,2.3,2.3,98,0.00,CLR,,0.00,WeatherDisplay:10.37,2013-05-11 06:41:00,
2013-05-11 01:46:00,61.7,61.1,29.97,North,0,1.1,0.0,98,0.00,CLR,,0.00,WeatherDisplay:10.37,2013-05-11 06:46:00,
2013-05-11 01:51:00,61.9,61.3,29.97,NNW,338,2.3,2.3,98,0.00,CLR,,0.00,WeatherDisplay:10.37,2013-05-11 06:51:00,
2013-05-11 01:56:00,61.9,61.3,29.97,NNW,338,2.3,2.3,98,0.00,CLR,,0.00,WeatherDisplay:10.37,2013-05-11 06:56:00,
2013-05-11 02:01:00,62.2,61.7,29.94,North,0,3.5,3.5,98,0.00,CLR,,0.00,WeatherDisplay:10.37,2013-05-11 07:01:00,
2013-05-11 02:06:00,62.4,61.8,29.94,NW,315,1.1,0.0,98,0.00,CLR,,0.00,WeatherDisplay:10.37,2013-05-11 07:06:00,
2013-05-11 02:11:00,62.6,62.0,29.94,North,0,0.0,0.9,98,0.00,CLR,,0.00,WeatherDisplay:10.37,2013-05-11 07:11:00,
2013-05-11 02:16:00,62.6,62.0,29.97,North,0,0.0,0.0,98,0.00,CLR,,0.00,WeatherDisplay:10.37,2013-05-11 07:16:00,
2013-05-11 02:22:00,62.8,62.2,29.97,North,0,1.1,0.0,98,0.00,CLR,,0.00,WeatherDisplay:10.37,2013-05-11 07:22:00,
2013-05-11 02:27:00,62.6,62.0,29.97,NNW,338,2.3,2.3,98,0.00,CLR,,0.00,WeatherDisplay:10.37,2013-05-11 07:27:00,
2013-05-11 02:32:00,62.6,62.0,29.97,NNW,338,0.0,0.0,98,0.00,CLR,,0.00,WeatherDisplay:10.37,2013-05-11 07:32:00,
2013-05-11 02:37:00,62.6,62.0,29.97,NNW,338,0.0,0.0,98,0.00,CLR,,0.00,WeatherDisplay:10.37,2013-05-11 07:37:00,
2013-05-11 02:42:00,62.4,61.8,29.97,NNW,338,0.0,0.0,98,0.00,CLR,,0.00,WeatherDisplay:10.37,2013-05-11 07:42:00,
2013-05-11 02:47:00,62.4,61.8,29.94,NNW,338,0.0,0.0,98,0.00,CLR,,0.00,WeatherDisplay:10.37,2013-05-11 07:47:00,
2013-05-11 02:52:00,62.4,61.8,29.94,North,0,0.0,0.0,98,0.00,CLR,,0.00,WeatherDisplay:10.37,2013-05-11 07:52:00,
2013-05-11 02:57:00,62.4,61.8,29.94,North,0,0.0,0.0,98,0.00,CLR,,0.00,WeatherDisplay:10.37,2013-05-11 07:57:00,
2013-05-11 03:02:00,62.4,61.8,30.00,North,0,0.0,0.0,98,0.00,CLR,,0.00,WeatherDisplay:10.37,2013-05-11 08:02:00,
2013-05-11 03:07:00,62.4,61.8,30.00,SE,135,0.0,0.0,98,0.00,CLR,,0.00,WeatherDisplay:10.37,2013-05-11 08:07:00,
2013-05-11 03:12:00,62.4,61.8,30.00,North,0,1.4,1.4,98,0.00,CLR,,0.00,WeatherDisplay:10.37,2013-05-11 08:12:00,
2013-05-11 03:17:00,62.4,61.8,29.94,North,0,1.6,1.6,98,0.00,CLR,,0.00,WeatherDisplay:10.37,2013-05-11 08:17:00,
2013-05-11 03:22:00,62.2,61.7,29.94,North,0,2.3,2.3,98,0.00,CLR,,0.00,WeatherDisplay:10.37,2013-05-11 08:22:00,
2013-05-11 03:27:00,62.2,61.7,29.94,North,0,3.6,3.6,98,0.00,CLR,,0.00,WeatherDisplay:10.37,2013-05-11 08:27:00,
2013-05-11 03:32:00,62.2,61.7,29.97,NNW,338,1.1,1.1,98,0.00,CLR,,0.00,WeatherDisplay:10.37,2013-05-11 08:32:00,
2013-05-11 03:37:00,62.2,61.7,29.97,NNW,338,0.0,0.0,98,0.00,CLR,,0.00,WeatherDisplay:10.37,2013-05-11 08:37:00,
2013-05-11 03:42:00,62.4,61.8,29.97,NNW,338,1.4,1.4,98,0.00,CLR,,0.00,WeatherDisplay:10.37,2013-05-11 08:42:00,
2013-05-11 03:47:00,62.4,61.8,29.97,NNW,338,2.6,2.6,98,0.00,CLR,,0.00,WeatherDisplay:10.37,2013-05-11 08:47:00,
2013-05-11 03:52:00,62.6,62.0,29.97,NNW,338,2.3,2.3,98,0.00,CLR,,0.00,WeatherDisplay:10.37,2013-05-11 08:52:00,
2013-05-11 03:57:00,62.6,62.0,29.97,NNW,338,1.6,1.6,98,0.00,CLR,,0.00,WeatherDisplay:10.37,2013-05-11 08:57:00,
2013-05-11 04:02:00,62.6,62.0,29.97,NNW,338,2.3,2.3,98,0.00,CLR,,0.00,WeatherDisplay:10.37,2013-05-11 09:02:00,
2013-05-11 04:07:00,62.6,62.0,29.97,North,0,3.5,3.5,98,0.00,CLR,,0.00,WeatherDisplay:10.37,2013-05-11 09:07:00,
2013-05-11 04:12:00,62.6,62.0,29.97,NNW,338,2.3,2.3,98,0.00,CLR,,0.00,WeatherDisplay:10.37,2013-05-11 09:12:00,
2013-05-11 04:17:00,62.8,62.2,29.94,North,0,2.3,2.3,98,0.00,CLR,,0.00,WeatherDisplay:10.37,2013-05-11 09:17:00,
2013-05-11 04:22:00,62.8,62.2,29.94,North,0,0.0,0.0,98,0.00,CLR,,0.00,WeatherDisplay:10.37,2013-05-11 09:22:00,
2013-05-11 04:27:00,62.8,62.2,29.94,NNW,338,2.9,2.9,98,0.00,CLR,,0.00,WeatherDisplay:10.37,2013-05-11 09:27:00,
2013-05-11 04:32:00,63.0,62.4,29.97,NNW,338,0.0,0.0,98,0.00,CLR,,0.00,WeatherDisplay:10.37,2013-05-11 09:32:00,
2013-05-11 04:37:00,63.0,62.4,29.97,NNW,338,1.1,1.1,98,0.00,CLR,,0.00,WeatherDisplay:10.37,2013-05-11 09:37:00,
2013-05-11 04:42:00,63.0,62.4,29.97,NNW,338,0.0,0.0,98,0.00,CLR,,0.00,WeatherDisplay:10.37,2013-05-11 09:42:00,
2013-05-11 04:47:00,63.0,62.4,29.94,North,0,2.0,0.0,98,0.00,CLR,,0.00,WeatherDisplay:10.37,2013-05-11 09:47:00,
2013-05-11 04:52:00,63.0,62.4,29.94,NNW,338,2.3,2.3,98,0.00,CLR,,0.00,WeatherDisplay:10.37,2013-05-11 09:52:00,
2013-05-11 04:57:00,63.0,62.4,29.94,NNW,338,1.1,0.0,98,0.00,CLR,,0.00,WeatherDisplay:10.37,2013-05-11 09:57:00,
2013-05-11 05:02:00,63.0,62.4,29.97,South,180,2.3,2.3,98,0.00,CLR,,0.00,WeatherDisplay:10.37,2013-05-11 10:02:00,
2013-05-11 05:07:00,63.1,62.6,29.97,South,180,2.4,2.4,98,0.00,CLR,,0.00,WeatherDisplay:10.37,2013-05-11 10:07:00,
2013-05-11 05:12:00,63.1,62.6,29.97,South,180,2.3,2.3,98,0.00,CLR,,0.00,WeatherDisplay:10.37,2013-05-11 10:12:00,
2013-05-11 05:17:00,63.1,62.6,29.94,South,180,2.3,2.3,98,0.00,CLR,,0.05,WeatherDisplay:10.37,2013-05-11 10:17:00,
2013-05-11 05:22:00,63.1,62.6,29.94,SSW,202,3.1,3.1,98,0.05,RA,,0.05,WeatherDisplay:10.37,2013-05-11 10:22:00,
2013-05-11 05:27:00,63.3,62.7,29.94,South,180,5.8,5.8,98,0.05,RA,,0.05,WeatherDisplay:10.37,2013-05-11 10:27:00,
2013-05-11 05:32:00,63.5,62.9,30.03,South,180,7.6,7.6,98,0.09,RA,,0.09,WeatherDisplay:10.37,2013-05-11 10:32:00,
2013-05-11 05:37:00,63.5,62.9,30.03,East,90,3.5,3.5,98,0.09,RA,,0.09,WeatherDisplay:10.37,2013-05-11 10:37:00,
2013-05-11 05:42:00,63.5,62.9,30.03,NNW,338,4.6,4.6,98,0.13,RA,,0.13,WeatherDisplay:10.37,2013-05-11 10:42:00,
2013-05-11 05:47:00,63.7,63.1,29.97,North,0,4.6,4.6,98,0.13,RA,,0.13,WeatherDisplay:10.37,2013-05-11 10:47:00,
2013-05-11 05:52:00,63.5,62.9,29.97,SSE,158,11.5,11.5,98,0.17,RA,,0.17,WeatherDisplay:10.37,2013-05-11 10:52:00,
2013-05-11 05:57:00,63.7,63.1,29.97,NW,315,3.5,3.5,98,0.17,RA,,0.17,WeatherDisplay:10.37,2013-05-11 10:57:00,
2013-05-11 06:02:00,63.5,62.9,29.94,North,0,9.2,9.2,98,0.21,RA,,0.21,WeatherDisplay:10.37,2013-05-11 11:02:00,
2013-05-11 06:07:00,63.5,62.9,29.94,NE,45,9.2,9.2,98,0.21,RA,,0.21,WeatherDisplay:10.37,2013-05-11 11:07:00,
2013-05-11 06:12:00,63.5,62.9,29.94,NNW,338,9.2,9.2,98,0.21,,,0.21,WeatherDisplay:10.37,2013-05-11 11:12:00,
2013-05-11 06:17:00,63.5,62.9,29.91,SSE,158,12.3,12.3,98,0.21,CLR,,0.21,WeatherDisplay:10.37,2013-05-11 11:17:00,
2013-05-11 06:22:00,63.7,63.1,29.91,SSE,158,10.4,10.4,98,0.16,CLR,,0.21,WeatherDisplay:10.37,2013-05-11 11:22:00,
2013-05-11 06:27:00,63.7,63.1,29.91,SSE,158,8.1,8.1,98,0.16,CLR,,0.21,WeatherDisplay:10.37,2013-05-11 11:27:00,
2013-05-11 06:32:00,63.7,63.1,29.94,SSE,158,5.8,5.8,98,0.17,RA,,0.26,WeatherDisplay:10.37,2013-05-11 11:32:00,
2013-05-11 06:37:00,63.5,62.9,29.94,SSE,158,6.9,6.9,98,0.17,RA,,0.26,WeatherDisplay:10.37,2013-05-11 11:37:00,
2013-05-11 06:42:00,63.5,62.9,29.94,SSE,158,5.8,5.8,98,0.13,,,0.26,WeatherDisplay:10.37,2013-05-11 11:42:00,
2013-05-11 06:47:00,63.5,62.9,29.94,SSE,158,3.5,3.5,98,0.13,CLR,,0.26,WeatherDisplay:10.37,2013-05-11 11:47:00,
2013-05-11 06:52:00,63.5,62.9,29.94,SSW,202,1.1,0.0,98,0.09,CLR,,0.26,WeatherDisplay:10.37,2013-05-11 11:52:00,
2013-05-11 06:57:00,63.7,63.1,29.94,South,180,4.6,4.6,98,0.09,CLR,,0.26,WeatherDisplay:10.37,2013-05-11 11:57:00,
2013-05-11 07:02:00,63.7,63.1,29.94,South,180,2.3,2.3,98,0.05,CLR,,0.26,WeatherDisplay:10.37,2013-05-11 12:02:00,
2013-05-11 07:07:00,63.9,63.3,29.94,SE,135,2.9,2.9,98,0.05,CLR,,0.26,WeatherDisplay:10.37,2013-05-11 12:07:00,
2013-05-11 07:12:00,63.9,63.3,29.94,SSE,158,0.0,0.0,98,0.05,CLR,,0.26,WeatherDisplay:10.37,2013-05-11 12:12:00,
2013-05-11 07:17:00,64.0,63.5,29.94,North,0,2.2,0.0,98,0.05,CLR,,0.26,WeatherDisplay:10.37,2013-05-11 12:17:00,
2013-05-11 07:22:00,64.0,63.5,29.94,ENE,68,2.3,3.1,98,0.05,CLR,,0.26,WeatherDisplay:10.37,2013-05-11 12:22:00,
2013-05-11 07:28:00,64.2,63.6,29.94,SE,135,1.1,0.0,98,0.05,CLR,,0.26,WeatherDisplay:10.37,2013-05-11 12:28:00,
2013-05-11 07:33:00,64.4,63.8,29.97,NNW,338,2.3,2.4,98,0.00,CLR,,0.26,WeatherDisplay:10.37,2013-05-11 12:33:00,
2013-05-11 07:38:00,64.6,64.0,29.97,SSE,158,2.3,2.3,98,0.00,CLR,,0.26,WeatherDisplay:10.37,2013-05-11 12:38:00,
2013-05-11 07:43:00,64.8,64.2,29.97,SE,135,3.5,3.5,98,0.00,CLR,,0.26,WeatherDisplay:10.37,2013-05-11 12:43:00,
2013-05-11 07:48:00,65.1,64.5,29.97,SSE,158,2.4,2.4,98,0.00,CLR,,0.26,WeatherDisplay:10.37,2013-05-11 12:48:00,
2013-05-11 07:53:00,65.5,64.9,29.97,SSE,158,2.3,2.3,98,0.00,CLR,,0.26,WeatherDisplay:10.37,2013-05-11 12:53:00,
2013-05-11 07:58:00,65.7,65.1,29.97,SW,225,1.6,0.0,98,0.00,CLR,,0.26,WeatherDisplay:10.37,2013-05-11 12:58:00,
2013-05-11 08:03:00,66.0,65.4,29.97,South,180,2.3,2.3,98,0.00,CLR,,0.26,WeatherDisplay:10.37,2013-05-11 13:03:00,
2013-05-11 08:08:00,66.2,65.6,29.97,SSE,158,1.4,0.0,98,0.00,CLR,,0.26,WeatherDisplay:10.37,2013-05-11 13:08:00,
2013-05-11 08:13:00,66.7,66.2,29.97,South,180,2.3,2.3,98,0.00,CLR,,0.26,WeatherDisplay:10.37,2013-05-11 13:13:00,
2013-05-11 08:18:00,67.1,66.5,29.97,South,180,2.4,2.4,98,0.00,CLR,,0.26,WeatherDisplay:10.37,2013-05-11 13:18:00,
2013-05-11 08:23:00,68.5,68.0,29.97,South,180,2.9,2.9,98,0.00,CLR,,0.26,WeatherDisplay:10.37,2013-05-11 13:23:00,
2013-05-11 08:28:00,69.6,69.0,29.97,South,180,3.5,3.5,98,0.00,CLR,,0.26,WeatherDisplay:10.37,2013-05-11 13:28:00,
2013-05-11 08:33:00,69.1,68.5,30.00,SSW,202,4.6,4.6,98,0.00,CLR,,0.26,WeatherDisplay:10.37,2013-05-11 13:33:00,
2013-05-11 08:38:00,71.1,70.5,30.00,South,180,2.3,2.3,98,0.00,CLR,,0.26,WeatherDisplay:10.37,2013-05-11 13:38:00,
2013-05-11 08:43:00,71.8,71.2,30.00,South,180,2.4,2.4,98,0.00,CLR,,0.26,WeatherDisplay:10.37,2013-05-11 13:43:00,
2013-05-11 08:48:00,71.2,70.6,30.00,South,180,3.8,3.8,98,0.00,CLR,,0.26,WeatherDisplay:10.37,2013-05-11 13:48:00,
2013-05-11 08:53:00,71.4,70.8,30.00,South,180,5.8,5.8,98,0.00,CLR,,0.26,WeatherDisplay:10.37,2013-05-11 13:53:00,
2013-05-11 08:58:00,72.0,71.4,30.00,South,180,5.8,5.8,98,0.00,CLR,,0.26,WeatherDisplay:10.37,2013-05-11 13:58:00,
2013-05-11 09:03:00,72.7,72.1,29.97,South,180,5.8,5.8,98,0.00,CLR,,0.26,WeatherDisplay:10.37,2013-05-11 14:03:00,
2013-05-11 09:08:00,74.5,73.9,29.97,SSW,202,6.9,6.9,98,0.00,CLR,,0.26,WeatherDisplay:10.37,2013-05-11 14:08:00,
2013-05-11 09:13:00,76.5,75.5,29.97,ESE,112,4.6,4.6,97,0.00,CLR,,0.26,WeatherDisplay:10.37,2013-05-11 14:13:00,
2013-05-11 09:18:00,77.9,77.0,29.97,SSE,158,3.5,3.5,97,0.00,CLR,,0.26,WeatherDisplay:10.37,2013-05-11 14:18:00,
2013-05-11 09:23:00,77.9,76.4,29.97,SSE,158,3.5,3.5,95,0.00,CLR,,0.26,WeatherDisplay:10.37,2013-05-11 14:23:00,
2013-05-11 09:28:00,77.5,74.4,29.97,South,180,3.6,3.6,90,0.00,CLR,,0.26,WeatherDisplay:10.37,2013-05-11 14:28:00,
2013-05-11 09:33:00,78.6,75.4,29.97,SSE,158,3.5,3.5,90,0.00,CLR,,0.26,WeatherDisplay:10.37,2013-05-11 14:33:00,
2013-05-11 09:38:00,79.0,74.8,29.97,South,180,4.3,4.3,87,0.00,CLR,,0.26,WeatherDisplay:10.37,2013-05-11 14:38:00,
2013-05-11 09:43:00,80.1,75.1,29.97,NE,45,3.5,3.5,85,0.00,CLR,,0.26,WeatherDisplay:10.37,2013-05-11 14:43:00,
2013-05-11 09:48:00,81.3,76.4,29.97,SE,135,3.8,3.8,85,0.00,CLR,,0.26,WeatherDisplay:10.37,2013-05-11 14:48:00,
2013-05-11 09:53:00,80.1,71.0,29.97,SSE,158,5.8,5.8,74,0.00,CLR,,0.26,WeatherDisplay:10.37,2013-05-11 14:53:00,
2013-05-11 09:58:00,78.8,69.4,29.97,SSE,158,3.6,3.6,73,0.00,CLR,,0.26,WeatherDisplay:10.37,2013-05-11 14:58:00,
2013-05-11 10:03:00,79.2,70.2,29.97,South,180,3.8,3.8,74,0.00,CLR,,0.26,WeatherDisplay:10.37,2013-05-11 15:03:00,
2013-05-11 10:08:00,77.5,66.6,29.97,South,180,1.1,1.1,69,0.00,CLR,,0.26,WeatherDisplay:10.37,2013-05-11 15:08:00,
2013-05-11 10:13:00,78.6,69.2,29.97,South,180,2.3,2.3,73,0.00,CLR,,0.26,WeatherDisplay:10.37,2013-05-11 15:13:00,
2013-05-11 10:18:00,79.5,69.7,29.97,NE,45,3.5,3.5,72,0.00,CLR,,0.26,WeatherDisplay:10.37,2013-05-11 15:18:00,
2013-05-11 10:23:00,78.3,68.1,29.97,ENE,68,2.3,2.3,71,0.00,CLR,,0.26,WeatherDisplay:10.37,2013-05-11 15:23:00,
2013-05-11 10:28:00,77.7,65.9,29.97,NNE,22,4.3,4.3,67,0.00,CLR,,0.26,WeatherDisplay:10.37,2013-05-11 15:28:00,
2013-05-11 10:33:00,78.6,67.6,29.97,North,0,6.9,6.9,69,0.00,CLR,,0.26,WeatherDisplay:10.37,2013-05-11 15:33:00,
2013-05-11 10:38:00,77.9,67.3,29.97,WSW,248,2.3,2.4,70,0.00,CLR,,0.26,WeatherDisplay:10.37,2013-05-11 15:38:00,
2013-05-11 10:43:00,77.7,66.7,29.97,North,0,3.6,3.6,69,0.00,CLR,,0.26,WeatherDisplay:10.37,2013-05-11 15:43:00,
2013-05-11 10:48:00,77.2,66.2,29.97,ENE,68,4.6,4.6,69,0.00,CLR,,0.26,WeatherDisplay:10.37,2013-05-11 15:48:00,
2013-05-11 10:53:00,77.9,69.7,29.97,South,180,2.4,2.4,76,0.00,CLR,,0.26,WeatherDisplay:10.37,2013-05-11 15:53:00,
2013-05-11 10:58:00,79.0,71.9,29.97,South,180,2.3,2.4,79,0.00,CLR,,0.26,WeatherDisplay:10.37,2013-05-11 15:58:00,
2013-05-11 11:03:00,80.2,73.1,29.97,South,180,4.6,4.6,79,0.00,CLR,,0.26,WeatherDisplay:10.37,2013-05-11 16:03:00,
2013-05-11 11:08:00,82.0,74.9,29.97,SSW,202,3.5,3.5,79,0.00,CLR,,0.26,WeatherDisplay:10.37,2013-05-11 16:08:00,
2013-05-11 11:13:00,82.2,73.1,30.00,South,180,2.6,2.6,74,0.00,CLR,,0.26,WeatherDisplay:10.37,2013-05-11 16:13:00,
2013-05-11 11:18:00,82.4,70.8,30.00,South,180,3.5,3.5,68,0.00,CLR,,0.26,WeatherDisplay:10.37,2013-05-11 16:18:00,
2013-05-11 11:23:00,81.9,69.4,30.00,South,180,3.5,3.5,66,0.00,CLR,,0.26,WeatherDisplay:10.37,2013-05-11 16:23:00,
2013-05-11 11:28:00,81.1,67.8,30.00,South,180,4.6,4.6,64,0.00,CLR,,0.26,WeatherDisplay:10.37,2013-05-11 16:28:00,
2013-05-11 11:33:00,80.4,66.2,30.00,South,180,2.6,2.6,62,0.00,CLR,,0.26,WeatherDisplay:10.37,2013-05-11 16:33:00,
2013-05-11 11:38:00,79.7,65.1,30.00,South,180,2.6,2.6,61,0.00,CLR,,0.26,WeatherDisplay:10.37,2013-05-11 16:38:00,
2013-05-11 11:43:00,79.5,66.3,29.97,South,180,3.5,3.5,64,0.00,CLR,,0.26,WeatherDisplay:10.37,2013-05-11 16:43:00,
2013-05-11 11:48:00,79.3,66.1,29.97,South,180,2.3,2.3,64,0.00,CLR,,0.26,WeatherDisplay:10.37,2013-05-11 16:48:00,
2013-05-11 11:53:00,78.8,63.7,29.97,South,180,1.6,1.6,60,0.00,CLR,,0.26,WeatherDisplay:10.37,2013-05-11 16:53:00,
2013-05-11 11:58:00,78.1,64.9,29.97,South,180,3.5,3.5,64,0.00,CLR,,0.26,WeatherDisplay:10.37,2013-05-11 16:58:00,
2013-05-11 12:03:00,77.9,65.2,29.97,South,180,2.6,2.6,65,0.00,CLR,,0.26,WeatherDisplay:10.37,2013-05-11 17:03:00,
2013-05-11 12:08:00,77.4,64.2,29.97,SSE,158,2.3,2.3,64,0.00,CLR,,0.26,WeatherDisplay:10.37,2013-05-11 17:08:00,
2013-05-11 12:13:00,76.8,64.6,29.97,South,180,3.5,3.5,66,0.00,CLR,,0.26,WeatherDisplay:10.37,2013-05-11 17:13:00,
2013-05-11 12:18:00,76.6,64.0,29.97,South,180,3.5,3.5,65,0.00,CLR,,0.26,WeatherDisplay:10.37,2013-05-11 17:18:00,
2013-05-11 12:23:00,76.3,64.1,29.97,South,180,2.4,2.4,66,0.00,CLR,,0.26,WeatherDisplay:10.37,2013-05-11 17:23:00,
2013-05-11 12:28:00,76.1,64.3,29.97,SSE,158,3.5,3.5,67,0.00,CLR,,0.26,WeatherDisplay:10.37,2013-05-11 17:28:00,
2013-05-11 12:33:00,75.9,65.0,29.97,South,180,3.5,3.5,69,0.00,CLR,,0.26,WeatherDisplay:10.37,2013-05-11 17:33:00,
2013-05-11 12:38:00,75.7,64.8,29.97,South,180,4.6,4.6,69,0.00,CLR,,0.26,WeatherDisplay:10.37,2013-05-11 17:38:00,
2013-05-11 12:43:00,75.7,64.8,30.00,SSW,202,2.6,2.6,69,0.00,CLR,,0.26,WeatherDisplay:10.37,2013-05-11 17:43:00,
2013-05-11 12:48:00,75.9,65.0,30.00,South,180,3.5,3.5,69,0.00,CLR,,0.26,WeatherDisplay:10.37,2013-05-11 17:48:00,
2013-05-11 12:53:00,75.7,65.3,30.00,South,180,2.4,2.4,70,0.00,CLR,,0.26,WeatherDisplay:10.37,2013-05-11 17:53:00,
2013-05-11 12:58:00,75.9,65.0,30.03,South,180,3.5,3.5,69,0.00,CLR,,0.26,WeatherDisplay:10.37,2013-05-11 17:58:00,
2013-05-11 13:03:00,76.1,65.2,30.03,SSE,158,3.5,3.5,69,0.00,CLR,,0.26,WeatherDisplay:10.37,2013-05-11 18:03:00,
2013-05-11 13:08:00,76.5,65.9,30.03,South,180,3.5,3.5,70,0.00,CLR,,0.26,WeatherDisplay:10.37,2013-05-11 18:08:00,
2013-05-11 13:13:00,76.8,66.3,30.03,South,180,5.8,5.8,70,0.00,CLR,,0.26,WeatherDisplay:10.37,2013-05-11 18:13:00,
2013-05-11 13:19:00,77.0,66.0,30.03,SSW,202,3.5,3.5,69,0.00,CLR,,0.26,WeatherDisplay:10.37,2013-05-11 18:19:00,
2013-05-11 13:23:00,77.4,66.0,30.03,South,180,3.8,3.8,68,0.00,CLR,,0.26,WeatherDisplay:10.37,2013-05-11 18:23:00,
2013-05-11 13:29:00,77.7,66.3,30.00,SSE,158,3.5,3.5,68,0.00,CLR,,0.26,WeatherDisplay:10.37,2013-05-11 18:29:00,
2013-05-11 13:34:00,78.1,66.7,30.00,SSE,158,4.3,4.3,68,0.00,CLR,,0.26,WeatherDisplay:10.37,2013-05-11 18:34:00,
2013-05-11 13:39:00,78.1,66.2,30.00,SE,135,2.3,2.4,67,0.00,CLR,,0.26,WeatherDisplay:10.37,2013-05-11 18:39:00,
2013-05-11 13:44:00,78.4,66.6,30.00,SSE,158,4.6,4.6,67,0.00,CLR,,0.26,WeatherDisplay:10.37,2013-05-11 18:44:00,
2013-05-11 13:49:00,78.8,66.5,30.00,ESE,112,3.5,3.5,66,0.00,CLR,,0.26,WeatherDisplay:10.37,2013-05-11 18:49:00,
2013-05-11 13:54:00,79.2,66.4,30.00,South,180,4.6,4.6,65,0.00,CLR,,0.26,WeatherDisplay:10.37,2013-05-11 18:54:00,
2013-05-11 13:59:00,79.7,66.9,30.00,South,180,3.1,3.1,65,0.00,CLR,,0.26,WeatherDisplay:10.37,2013-05-11 18:59:00,
2013-05-11 14:04:00,79.7,66.0,30.00,SW,225,4.6,4.6,63,0.00,CLR,,0.26,WeatherDisplay:10.37,2013-05-11 19:04:00,
2013-05-11 14:09:00,79.5,64.9,30.00,South,180,2.9,2.9,61,0.00,CLR,,0.26,WeatherDisplay:10.37,2013-05-11 19:09:00,
2013-05-11 14:14:00,79.0,63.4,29.97,SSE,158,2.3,2.4,59,0.00,CLR,,0.26,WeatherDisplay:10.37,2013-05-11 19:14:00,
2013-05-11 14:19:00,78.6,63.1,29.97,SSE,158,2.6,2.6,59,0.00,CLR,,0.26,WeatherDisplay:10.37,2013-05-11 19:19:00,
2013-05-11 14:24:00,77.9,61.4,29.97,SSE,158,1.1,1.6,57,0.00,CLR,,0.26,WeatherDisplay:10.37,2013-05-11 19:24:00,
2013-05-11 14:29:00,77.5,62.1,29.94,South,180,2.9,2.9,59,0.00,CLR,,0.26,WeatherDisplay:10.37,2013-05-11 19:29:00,
2013-05-11 14:34:00,77.4,60.4,29.94,ENE,68,3.5,3.5,56,0.00,CLR,,0.26,WeatherDisplay:10.37,2013-05-11 19:34:00,
2013-05-11 14:39:00,77.0,60.6,29.94,North,0,2.3,2.3,57,0.00,CLR,,0.26,WeatherDisplay:10.37,2013-05-11 19:39:00,
2013-05-11 14:44:00,77.0,60.6,29.97,NNE,22,4.6,4.6,57,0.00,CLR,,0.26,WeatherDisplay:10.37,2013-05-11 19:44:00,
2013-05-11 14:49:00,77.0,60.1,29.97,North,0,2.6,2.6,56,0.00,CLR,,0.26,WeatherDisplay:10.37,2013-05-11 19:49:00,
2013-05-11 14:54:00,77.2,61.7,29.97,NNE,22,2.3,2.3,59,0.00,CLR,,0.26,WeatherDisplay:10.37,2013-05-11 19:54:00,
2013-05-11 14:59:00,77.4,60.4,29.94,NNW,338,4.6,4.6,56,0.00,CLR,,0.26,WeatherDisplay:10.37,2013-05-11 19:59:00,
2013-05-11 15:04:00,77.5,61.6,29.94,ESE,112,2.3,2.3,58,0.00,CLR,,0.26,WeatherDisplay:10.37,2013-05-11 20:04:00,
2013-05-11 15:09:00,77.5,61.6,29.94,SSE,158,1.4,1.4,58,0.00,CLR,,0.26,WeatherDisplay:10.37,2013-05-11 20:09:00,
2013-05-11 15:14:00,77.7,61.8,29.94,SSE,158,2.3,2.3,58,0.00,CLR,,0.26,WeatherDisplay:10.37,2013-05-11 20:14:00,
2013-05-11 15:19:00,77.5,59.6,29.94,NNE,22,6.4,6.4,54,0.00,CLR,,0.26,WeatherDisplay:10.37,2013-05-11 20:19:00,
2013-05-11 15:24:00,77.5,58.5,29.94,North,0,5.8,5.8,52,0.00,CLR,,0.26,WeatherDisplay:10.37,2013-05-11 20:24:00,
2013-05-11 15:29:00,77.4,58.9,29.94,North,0,4.6,4.6,53,0.00,CLR,,0.26,WeatherDisplay:10.37,2013-05-11 20:29:00,
2013-05-11 15:34:00,77.9,60.4,29.94,SE,135,2.3,2.4,55,0.00,CLR,,0.26,WeatherDisplay:10.37,2013-05-11 20:34:00,
2013-05-11 15:39:00,78.1,58.5,29.94,NNE,22,6.9,6.9,51,0.00,CLR,,0.26,WeatherDisplay:10.37,2013-05-11 20:39:00,
2013-05-11 15:44:00,78.1,60.6,29.94,SSE,158,3.6,3.6,55,0.00,CLR,,0.26,WeatherDisplay:10.37,2013-05-11 20:44:00,
2013-05-11 15:49:00,77.7,58.1,29.94,ESE,112,3.5,3.5,51,0.00,CLR,,0.26,WeatherDisplay:10.37,2013-05-11 20:49:00,
2013-05-11 15:54:00,77.2,56.5,29.94,NNE,22,4.6,4.6,49,0.00,CLR,,0.26,WeatherDisplay:10.37,2013-05-11 20:54:00,
2013-05-11 15:59:00,77.2,58.2,29.94,ESE,112,2.4,2.4,52,0.00,CLR,,0.26,WeatherDisplay:10.37,2013-05-11 20:59:00,
2013-05-11 16:04:00,77.4,58.9,29.94,SE,135,2.3,2.3,53,0.00,CLR,,0.26,WeatherDisplay:10.37,2013-05-11 21:04:00,
2013-05-11 16:09:00,77.5,60.6,29.94,NNE,22,3.5,3.5,56,0.00,CLR,,0.26,WeatherDisplay:10.37,2013-05-11 21:09:00,
2013-05-11 16:14:00,77.5,59.6,29.94,NNE,22,2.6,2.6,54,0.00,CLR,,0.26,WeatherDisplay:10.37,2013-05-11 21:14:00,
2013-05-11 16:19:00,77.9,59.9,29.94,South,180,2.3,2.3,54,0.00,CLR,,0.26,WeatherDisplay:10.37,2013-05-11 21:19:00,
2013-05-11 16:24:00,77.7,59.2,29.94,SE,135,3.5,3.5,53,0.00,CLR,,0.26,WeatherDisplay:10.37,2013-05-11 21:24:00,
2013-05-11 16:29:00,78.1,61.1,29.94,SSE,158,3.5,3.5,56,0.00,CLR,,0.26,WeatherDisplay:10.37,2013-05-11 21:29:00,
2013-05-11 16:34:00,78.3,60.8,29.94,SE,135,4.3,4.3,55,0.00,CLR,,0.26,WeatherDisplay:10.37,2013-05-11 21:34:00,
2013-05-11 16:39:00,78.4,61.4,29.94,South,180,4.6,4.6,56,0.00,CLR,,0.26,WeatherDisplay:10.37,2013-05-11 21:39:00,
2013-05-11 16:44:00,78.6,61.1,29.94,NNE,22,3.5,3.5,55,0.00,CLR,,0.26,WeatherDisplay:10.37,2013-05-11 21:44:00,
2013-05-11 16:49:00,78.3,59.2,29.94,SSE,158,4.6,4.6,52,0.00,CLR,,0.26,WeatherDisplay:10.37,2013-05-11 21:49:00,
2013-05-11 16:54:00,77.5,58.5,29.94,SE,135,3.5,3.5,52,0.00,CLR,,0.26,WeatherDisplay:10.37,2013-05-11 21:54:00,
2013-05-11 16:59:00,77.7,60.3,29.94,SE,135,3.5,3.5,55,0.00,CLR,,0.26,WeatherDisplay:10.37,2013-05-11 21:59:00,
2013-05-11 17:04:00,77.5,58.5,29.94,NNE,22,4.6,4.6,52,0.00,CLR,,0.26,WeatherDisplay:10.37,2013-05-11 22:04:00,
2013-05-11 17:09:00,77.2,58.7,29.94,NNE,22,2.3,2.3,53,0.00,CLR,,0.26,WeatherDisplay:10.37,2013-05-11 22:09:00,
2013-05-11 17:14:00,77.2,58.7,29.94,SSE,158,4.6,4.6,53,0.00,CLR,,0.26,WeatherDisplay:10.37,2013-05-11 22:14:00,
2013-05-11 17:19:00,77.0,59.6,29.94,South,180,2.3,2.6,55,0.00,CLR,,0.26,WeatherDisplay:10.37,2013-05-11 22:19:00,
2013-05-11 17:24:00,76.8,59.4,29.94,North,0,3.5,3.5,55,0.00,CLR,,0.26,WeatherDisplay:10.37,2013-05-11 22:24:00,
2013-05-11 17:29:00,76.6,59.3,29.94,NNW,338,3.6,3.6,55,0.00,CLR,,0.26,WeatherDisplay:10.37,2013-05-11 22:29:00,
2013-05-11 17:34:00,76.3,58.9,29.94,North,0,4.6,4.6,55,0.00,CLR,,0.26,WeatherDisplay:10.37,2013-05-11 22:34:00,
2013-05-11 17:39:00,76.3,58.9,29.94,North,0,4.3,4.3,55,0.00,CLR,,0.26,WeatherDisplay:10.37,2013-05-11 22:39:00,
2013-05-11 17:44:00,76.3,59.4,29.94,South,180,4.6,4.6,56,0.00,CLR,,0.26,WeatherDisplay:10.37,2013-05-11 22:44:00,
2013-05-11 17:49:00,76.3,59.9,29.94,NNE,22,2.6,2.6,57,0.00,CLR,,0.26,WeatherDisplay:10.37,2013-05-11 22:49:00,
2013-05-11 17:54:00,76.3,59.9,29.94,NNE,22,2.3,2.4,57,0.00,CLR,,0.26,WeatherDisplay:10.37,2013-05-11 22:54:00,
2013-05-11 17:59:00,76.1,59.3,29.94,NNW,338,3.6,3.6,56,0.00,CLR,,0.26,WeatherDisplay:10.37,2013-05-11 22:59:00,
2013-05-11 18:04:00,76.1,59.8,29.94,NE,45,2.0,2.0,57,0.00,CLR,,0.26,WeatherDisplay:10.37,2013-05-11 23:04:00,
2013-05-11 18:09:00,76.1,60.2,29.94,SE,135,2.3,2.3,58,0.00,CLR,,0.26,WeatherDisplay:10.37,2013-05-11 23:09:00,
2013-05-11 18:14:00,76.5,60.6,29.94,SE,135,2.4,2.4,58,0.00,CLR,,0.26,WeatherDisplay:10.37,2013-05-11 23:14:00,
2013-05-11 18:19:00,76.6,60.8,29.94,NNW,338,3.5,3.5,58,0.00,CLR,,0.26,WeatherDisplay:10.37,2013-05-11 23:19:00,
2013-05-11 18:24:00,76.6,59.8,29.94,NW,315,4.6,4.6,56,0.00,CLR,,0.26,WeatherDisplay:10.37,2013-05-11 23:24:00,
2013-05-11 18:29:00,76.5,60.1,29.94,NNW,338,2.3,2.6,57,0.00,CLR,,0.26,WeatherDisplay:10.37,2013-05-11 23:29:00,
2013-05-11 18:34:00,76.1,60.2,29.94,North,0,2.6,2.6,58,0.00,CLR,,0.26,WeatherDisplay:10.37,2013-05-11 23:34:00,
2013-05-11 18:39:00,75.7,59.4,29.94,NNE,22,2.3,2.3,57,0.00,CLR,,0.26,WeatherDisplay:10.37,2013-05-11 23:39:00,
2013-05-11 18:44:00,75.9,60.1,29.94,North,0,3.1,3.1,58,0.00,CLR,,0.26,WeatherDisplay:10.37,2013-05-11 23:44:00,
2013-05-11 18:49:00,75.7,59.9,29.94,North,0,2.3,2.3,58,0.00,CLR,,0.26,WeatherDisplay:10.37,2013-05-11 23:49:00,
2013-05-11 18:54:00,75.4,60.1,29.94,North,0,3.5,3.5,59,0.00,CLR,,0.26,WeatherDisplay:10.37,2013-05-11 23:54:00,
2013-05-11 19:00:00,75.2,59.9,29.94,North,0,1.1,1.1,59,0.00,CLR,,0.26,WeatherDisplay:10.37,2013-05-12 00:00:00,
2013-05-11 19:05:00,74.8,60.5,29.94,East,90,2.3,2.3,61,0.00,CLR,,0.26,WeatherDisplay:10.37,2013-05-12 00:05:00,
2013-05-11 19:10:00,74.7,60.3,29.94,ESE,112,2.3,2.3,61,0.00,CLR,,0.26,WeatherDisplay:10.37,2013-05-12 00:10:00,
2013-05-11 19:15:00,74.7,60.8,29.94,NNE,22,1.1,1.1,62,0.00,CLR,,0.26,WeatherDisplay:10.37,2013-05-12 00:15:00,
2013-05-11 19:20:00,74.5,60.6,29.94,NNE,22,1.1,0.0,62,0.00,CLR,,0.26,WeatherDisplay:10.37,2013-05-12 00:20:00,
2013-05-11 19:25:00,74.1,60.3,29.94,NNE,22,1.4,1.4,62,0.00,CLR,,0.26,WeatherDisplay:10.37,2013-05-12 00:25:00,
2013-05-11 19:30:00,73.9,61.0,29.97,SSE,158,2.9,2.9,64,0.00,CLR,,0.26,WeatherDisplay:10.37,2013-05-12 00:30:00,
2013-05-11 19:35:00,73.6,61.9,29.97,South,180,2.3,2.3,67,0.00,CLR,,0.26,WeatherDisplay:10.37,2013-05-12 00:35:00,
2013-05-11 19:40:00,73.0,62.3,29.97,South,180,0.0,0.0,69,0.00,CLR,,0.26,WeatherDisplay:10.37,2013-05-12 00:40:00,
2013-05-11 19:45:00,72.5,62.2,29.97,South,180,0.9,0.0,70,0.00,CLR,,0.26,WeatherDisplay:10.37,2013-05-12 00:45:00,
2013-05-11 19:50:00,72.3,62.4,29.97,North,0,2.3,2.3,71,0.00,CLR,,0.26,WeatherDisplay:10.37,2013-05-12 00:50:00,
2013-05-11 19:55:00,72.0,62.0,29.97,North,0,1.4,1.4,71,0.00,CLR,,0.26,WeatherDisplay:10.37,2013-05-12 00:55:00,
2013-05-11 20:00:00,71.6,62.5,29.97,North,0,1.1,0.0,73,0.00,CLR,,0.26,WeatherDisplay:10.37,2013-05-12 01:00:00,
2013-05-11 20:05:00,71.2,62.5,29.97,North,0,0.0,0.0,74,0.00,CLR,,0.26,WeatherDisplay:10.37,2013-05-12 01:05:00,
2013-05-11 20:10:00,70.9,62.6,29.97,North,0,0.0,0.0,75,0.00,CLR,,0.26,WeatherDisplay:10.37,2013-05-12 01:10:00,
2013-05-11 20:15:00,70.5,62.6,29.97,NNE,22,1.4,1.4,76,0.00,CLR,,0.26,WeatherDisplay:10.37,2013-05-12 01:15:00,
2013-05-11 20:20:00,70.3,62.4,29.97,NNE,22,1.1,0.0,76,0.00,CLR,,0.26,WeatherDisplay:10.37,2013-05-12 01:20:00,
2013-05-11 20:25:00,70.0,62.4,29.97,NNE,22,0.0,0.0,77,0.00,CLR,,0.26,WeatherDisplay:10.37,2013-05-12 01:25:00,
2013-05-11 20:30:00,69.8,61.9,29.97,WNW,292,0.0,0.0,76,0.00,CLR,,0.26,WeatherDisplay:10.37,2013-05-12 01:30:00,
2013-05-11 20:35:00,69.6,62.1,29.97,North,0,1.1,1.4,77,0.00,CLR,,0.26,WeatherDisplay:10.37,2013-05-12 01:35:00,
2013-05-11 20:40:00,69.4,61.9,29.97,North,0,2.3,2.3,77,0.00,CLR,,0.26,WeatherDisplay:10.37,2013-05-12 01:40:00,
2013-05-11 20:45:00,69.4,61.9,29.97,NNW,338,2.3,2.3,77,0.00,CLR,,0.26,WeatherDisplay:10.37,2013-05-12 01:45:00,
2013-05-11 20:50:00,69.3,61.4,29.97,North,0,2.3,2.3,76,0.00,CLR,,0.26,WeatherDisplay:10.37,2013-05-12 01:50:00,
2013-05-11 20:55:00,69.4,61.5,29.97,North,0,3.5,3.5,76,0.00,CLR,,0.26,WeatherDisplay:10.37,2013-05-12 01:55:00,
2013-05-11 21:00:00,69.4,61.2,29.97,NW,315,2.3,2.3,75,0.00,CLR,,0.26,WeatherDisplay:10.37,2013-05-12 02:00:00,
2013-05-11 21:05:00,69.4,60.8,29.97,NE,45,3.5,3.5,74,0.00,CLR,,0.26,WeatherDisplay:10.37,2013-05-12 02:05:00,
2013-05-11 21:10:00,69.3,60.2,29.97,NNE,22,3.3,3.3,73,0.00,CLR,,0.26,WeatherDisplay:10.37,2013-05-12 02:10:00,
2013-05-11 21:15:00,69.3,60.2,30.00,NNE,22,2.4,3.1,73,0.00,CLR,,0.26,WeatherDisplay:10.37,2013-05-12 02:15:00,
2013-05-11 21:20:00,69.3,59.8,30.00,North,0,2.3,2.3,72,0.00,CLR,,0.26,WeatherDisplay:10.37,2013-05-12 02:20:00,
2013-05-11 21:25:00,69.3,59.8,30.00,North,0,3.5,3.5,72,0.00,CLR,,0.26,WeatherDisplay:10.37,2013-05-12 02:25:00,
2013-05-11 21:30:00,69.1,59.7,30.00,NNE,22,3.5,3.5,72,0.00,CLR,,0.26,WeatherDisplay:10.37,2013-05-12 02:30:00,
2013-05-11 21:35:00,68.9,59.5,30.00,North,0,3.5,3.5,72,0.00,CLR,,0.26,WeatherDisplay:10.37,2013-05-12 02:35:00,
2013-05-11 21:40:00,68.7,59.3,30.00,North,0,2.9,2.9,72,0.00,CLR,,0.26,WeatherDisplay:10.37,2013-05-12 02:40:00,
2013-05-11 21:45:00,68.7,59.3,30.00,NNW,338,3.5,3.5,72,0.00,CLR,,0.26,WeatherDisplay:10.37,2013-05-12 02:45:00,
2013-05-11 21:50:00,68.5,59.2,30.00,North,0,3.5,3.5,72,0.00,CLR,,0.26,WeatherDisplay:10.37,2013-05-12 02:50:00,
2013-05-11 21:55:00,68.5,59.5,30.00,North,0,3.1,3.1,73,0.00,CLR,,0.26,WeatherDisplay:10.37,2013-05-12 02:55:00,
2013-05-11 22:00:00,68.4,59.4,30.03,NNE,22,3.5,3.5,73,0.00,CLR,,0.26,WeatherDisplay:10.37,2013-05-12 03:00:00,
2013-05-11 22:05:00,68.4,59.4,30.03,NNE,22,2.3,2.3,73,0.00,CLR,,0.26,WeatherDisplay:10.37,2013-05-12 03:05:00,
2013-05-11 22:10:00,68.2,59.6,30.03,North,0,2.6,2.6,74,0.00,CLR,,0.26,WeatherDisplay:10.37,2013-05-12 03:10:00,
2013-05-11 22:15:00,68.0,59.4,30.03,NW,315,2.6,2.6,74,0.00,CLR,,0.26,WeatherDisplay:10.37,2013-05-12 03:15:00,
2013-05-11 22:20:00,67.8,59.6,30.03,NNW,338,1.1,0.0,75,0.00,CLR,,0.26,WeatherDisplay:10.37,2013-05-12 03:20:00,
2013-05-11 22:25:00,67.6,59.4,30.03,NNW,338,1.1,1.1,75,0.00,CLR,,0.26,WeatherDisplay:10.37,2013-05-12 03:25:00,
2013-05-11 22:30:00,67.3,59.5,30.00,North,0,1.1,1.1,76,0.00,CLR,,0.26,WeatherDisplay:10.37,2013-05-12 03:30:00,
2013-05-11 22:35:00,67.3,59.8,30.00,NNW,338,2.3,2.3,77,0.00,CLR,,0.26,WeatherDisplay:10.37,2013-05-12 03:35:00,
2013-05-11 22:40:00,67.1,59.6,30.00,NNW,338,2.3,2.3,77,0.00,CLR,,0.26,WeatherDisplay:10.37,2013-05-12 03:40:00,
2013-05-11 22:45:00,67.1,60.0,30.03,NNW,338,2.3,2.3,78,0.00,CLR,,0.26,WeatherDisplay:10.37,2013-05-12 03:45:00,
2013-05-11 22:50:00,66.9,59.8,30.03,NW,315,2.9,2.9,78,0.00,CLR,,0.26,WeatherDisplay:10.37,2013-05-12 03:50:00,
2013-05-11 22:55:00,66.9,59.8,30.03,North,0,3.5,3.5,78,0.00,CLR,,0.26,WeatherDisplay:10.37,2013-05-12 03:55:00,
2013-05-11 23:00:00,66.9,60.2,30.03,NNE,22,2.3,2.3,79,0.00,CLR,,0.26,WeatherDisplay:10.37,2013-05-12 04:00:00,
2013-05-11 23:01:00,66.9,60.2,30.03,NNE,22,2.3,2.3,79,0.00,CLR,,0.26,WeatherDisplay:10.37,2013-05-12 04:01:00,
2013-05-11 23:06:00,66.9,60.2,30.03,NNW,338,2.9,2.9,79,0.00,CLR,,0.26,WeatherDisplay:10.37,2013-05-12 04:06:00,
2013-05-11 23:11:00,66.7,60.0,30.03,NNE,22,2.3,2.3,79,0.00,CLR,,0.26,WeatherDisplay:10.37,2013-05-12 04:11:00,
2013-05-11 23:16:00,66.7,60.0,30.03,ENE,68,2.3,2.3,79,0.00,CLR,,0.26,WeatherDisplay:10.37,2013-05-12 04:16:00,
2013-05-11 23:21:00,66.7,60.0,30.03,ENE,68,2.3,2.3,79,0.00,CLR,,0.26,WeatherDisplay:10.37,2013-05-12 04:21:00,
2013-05-11 23:26:00,66.7,60.0,30.03,NNE,22,2.3,2.3,79,0.00,CLR,,0.26,WeatherDisplay:10.37,2013-05-12 04:26:00,
2013-05-11 23:31:00,66.6,59.8,30.03,NNW,338,2.3,2.3,79,0.00,CLR,,0.26,WeatherDisplay:10.37,2013-05-12 04:31:00,
2013-05-11 23:36:00,66.6,59.8,30.03,North,0,2.6,2.6,79,0.00,CLR,,0.26,WeatherDisplay:10.37,2013-05-12 04:36:00,
2013-05-11 23:41:00,66.4,59.7,30.03,North,0,1.1,1.4,79,0.00,CLR,,0.26,WeatherDisplay:10.37,2013-05-12 04:41:00,
2013-05-11 23:46:00,66.2,59.5,30.06,North,0,0.0,0.0,79,0.00,CLR,,0.26,WeatherDisplay:10.37,2013-05-12 04:46:00,
2013-05-11 23:51:00,66.0,59.7,30.06,North,0,3.5,3.5,80,0.00,CLR,,0.26,WeatherDisplay:10.37,2013-05-12 04:51:00,
2013-05-11 23:56:00,66.0,59.7,30.06,North,0,1.1,1.1,80,0.00,CLR,,0.26,WeatherDisplay:10.37,2013-05-12 04:56:00,